Theta_e
338 339 337 337 338 342 343 341 344 346 347 345 342 342 342 343 343 343 344 342 337 338 340 339 339 334 337 337 334 333 334 336 338 337 338 338 337 333 335 332 336 335 332
337 338 340 337 341 343 339 341 342 341 343 346 342 342 344 345 346 346 344 345 339 337 339 340 338 337 338 338 337 335 335 336 337 338 338 336 337 336 334 333 331 332 331
340 340 342 343 343 344 342 339 340 343 344 346 341 343 345 345 345 345 346 345 344 338 337 336 336 336 337 338 338 335 337 339 338 337 336 337 335 337 335 334 332 334 333
340 341 343 342 343 336 342 340 344 342 345 343 345 344 345 345 346 346 346 346 345 344 344 339 340 340 339 337 334 335 341 342 341 339 335 335 335 335 336 336 335 331 333
342 336 343 342 336 344 342 340 340 340 343 344 344 346 346 345 345 346 346 347 347 346 345 345 341 338 337 336 338 341 342 343 343 342 339 334 334 334 338 337 335 332 332
344 342 345 344 343 346 343 345 340 344 345 341 343 346 345 345 345 347 347 347 347 347 346 346 347 343 341 342 342 342 343 343 342 342 341 337 333 332 335 335 336 332 329
345 343 346 345 342 342 342 344 343 341 344 344 340 340 345 345 345 346 346 345 345 346 346 345 347 346 346 343 341 339 339 342 342 342 341 337 330 326 334 335 333 332 328
344 346 344 344 344 344 343 344 343 341 344 342 345 340 341 344 346 346 346 347 346 346 346 347 347 348 348 348 348 343 341 343 344 343 341 340 334 327 331 333 331 331 330
346 345 346 346 344 343 344 344 342 343 344 344 347 344 341 345 344 345 341 341 345 345 345 345 345 345 347 347 348 347 341 343 343 343 344 341 337 330 327 330 328 328 329
346 347 346 345 342 342 341 337 342 344 344 344 343 344 345 340 339 344 347 345 345 344 345 346 346 345 346 347 347 346 347 345 343 343 343 344 338 331 329 329 330 330 330
346 348 346 342 340 339 341 342 343 345 347 344 342 343 343 341 341 340 343 345 348 342 345 345 344 344 345 346 347 348 344 342 344 344 343 346 342 338 333 330 330 330 332
352 348 346 345 342 343 343 346 347 346 345 344 343 342 341 341 340 341 345 340 339 347 346 344 344 344 344 344 345 343 348 344 343 345 344 345 346 343 339 338 334 332 331
346 350 346 346 347 346 342 340 342 348 346 347 347 347 348 345 344 343 345 345 347 344 344 345 345 344 344 346 346 345 342 341 343 344 344 347 347 346 343 340 337 335 334
352 348 349 348 348 347 346 345 346 347 350 348 347 349 350 348 348 345 345 346 347 347 347 347 347 346 345 346 347 345 344 342 342 344 345 347 347 346 344 342 341 340 339
348 347 348 347 348 348 343 344 348 345 346 349 353 350 348 349 349 349 347 346 345 348 347 348 350 347 347 346 349 347 347 347 345 343 345 347 348 347 343 342 345 348 343
345 346 346 346 347 347 346 337 343 342 346 344 342 344 344 340 341 341 342 344 345 346 347 347 348 349 348 347 348 348 348 348 348 344 346 345 345 347 346 345 347 346 346
345 344 341 336 338 342 346 341 339 342 344 343 342 342 342 341 338 336 336 340 336 336 343 347 347 346 346 350 349 349 348 349 349 346 345 345 345 347 347 345 347 345 343
344 342 339 337 336 336 340 340 341 339 340 339 338 337 336 335 337 338 338 341 341 341 344 341 343 345 348 352 351 349 346 346 347 346 346 345 346 347 347 346 346 345 344
339 338 336 332 336 339 338 327 326 327 325 327 332 331 331 331 332 333 335 335 335 336 339 341 341 343 345 346 349 350 344 341 346 347 347 347 346 346 347 347 345 345 345
337 335 335 335 331 337 329 330 328 333 334 334 334 333 333 334 334 333 331 332 334 335 335 337 340 338 338 342 344 346 349 348 344 346 346 347 347 345 345 346 347 347 346
338 336 332 327 329 328 331 336 337 337 337 337 337 336 335 334 331 329 328 326 326 332 333 334 334 336 335 335 339 344 345 348 348 346 346 347 348 348 348 344 344 346 346
330 330 330 330 331 334 337 336 333 332 333 334 334 335 335 334 332 330 330 327 323 329 332 335 334 333 334 336 335 336 339 341 347 349 347 346 347 345 348 350 348 344 344
333 333 334 334 334 334 335 334 335 335 332 332 332 333 333 330 329 329 329 329 330 329 327 330 335 335 335 336 337 339 338 340 342 344 349 348 346 346 346 347 350 350 346
333 333 332 332 331 330 330 329 328 327 325 325 327 328 327 326 326 327 328 328 329 332 332 332 335 335 335 336 336 336 336 337 340 339 344 345 348 346 347 347 348 349 348
320 316 314 312 311 311 310 309 309 309 315 320 322 323 324 325 325 324 325 326 328 330 331 332 330 330 333 336 335 336 333 336 337 337 343 347 345 347 347 347 346 347 346
310 307 306 306 306 307 308 307 306 311 313 313 315 318 319 320 322 322 322 323 325 327 330 332 334 334 334 331 330 331 333 333 332 334 336 342 344 345 345 346 347 348 348
Wind_Speed
13 12 15 16 13 11 8 13 10 11 10 11 11 12 13 12 13 12 12 17 16 16 16 13 13 14 13 13 13 11 10 8 9 9 10 9 7 6 7 5 6 6 5
15 14 14 17 13 8 9 9 11 12 13 10 12 12 12 11 12 12 11 12 14 16 18 16 16 15 16 16 14 13 13 11 11 11 12 11 11 8 8 7 7 7 6
13 15 14 12 11 9 12 10 12 12 8 7 11 11 12 13 13 13 12 11 12 14 17 19 19 20 19 17 16 15 14 12 12 11 13 14 13 12 10 9 8 9 7
13 12 11 10 11 13 13 13 12 11 10 12 10 11 13 12 13 14 13 12 13 11 14 13 12 13 15 16 16 16 14 12 12 12 12 15 15 14 12 11 9 7 8
10 8 10 10 12 11 10 13 11 13 11 10 11 12 12 12 13 12 13 13 13 14 12 14 12 12 13 13 15 15 15 14 13 13 12 14 15 16 14 12 11 11 10
10 9 9 10 11 10 12 11 12 12 12 13 11 11 15 13 14 13 13 13 12 13 14 14 14 14 16 15 15 15 15 13 13 13 14 14 15 17 16 15 13 12 11
12 11 11 12 13 13 13 11 13 14 13 14 14 13 12 14 15 15 13 15 14 15 14 15 16 15 15 18 20 20 18 16 15 13 15 16 16 16 16 15 14 14 14
10 12 12 13 14 13 14 13 12 15 14 15 13 11 11 10 13 15 15 14 15 14 16 18 17 17 17 16 17 18 19 16 14 13 15 15 15 15 16 16 16 16 14
10 11 11 11 13 16 16 14 14 15 11 7 10 8 3 7 2 7 10 12 10 11 13 15 18 20 20 19 19 19 19 18 16 15 14 15 15 15 16 18 17 16 15
6 8 9 10 11 16 15 17 17 15 12 10 10 11 11 12 7 10 5 6 10 12 11 12 13 14 17 19 22 22 23 23 22 20 18 15 15 15 16 17 17 16 15
5 6 7 6 7 7 10 12 11 11 13 10 10 11 10 12 13 14 16 12 10 11 11 13 14 15 15 15 16 21 26 26 24 24 22 19 17 16 16 17 17 17 16
4 5 6 9 9 6 7 7 8 11 10 11 12 11 11 10 12 13 13 17 16 13 14 13 14 14 16 17 18 20 26 26 27 25 25 23 20 18 18 18 17 17 17
5 5 4 6 7 7 6 6 9 8 9 8 9 10 12 13 13 14 16 15 15 14 15 13 13 16 15 17 18 24 24 27 27 27 26 24 23 21 20 18 18 17 17
6 7 6 5 5 7 6 7 5 7 8 8 9 10 10 11 16 15 18 17 17 16 15 15 14 13 14 15 18 25 23 27 30 29 27 25 23 23 22 21 19 19 19
12 10 8 7 6 6 5 3 3 5 8 7 7 8 9 11 13 12 15 16 18 19 18 14 11 9 10 9 10 11 14 18 24 29 28 26 25 23 24 23 21 19 20
20 16 12 6 4 5 4 2 4 6 5 7 8 10 9 10 12 14 14 14 16 20 23 18 16 13 14 14 14 15 13 19 25 26 28 29 28 27 27 26 24 23 22
22 23 18 10 7 3 7 8 9 8 7 9 11 12 12 12 13 14 16 18 18 20 23 24 20 21 19 17 15 15 15 15 18 25 29 29 30 29 28 29 27 25 23
18 17 13 18 33 16 14 13 11 10 11 12 12 13 13 13 13 15 16 17 18 21 21 25 23 21 20 18 17 18 16 17 16 18 23 30 29 29 31 30 29 27 26
19 18 13 4 12 15 18 16 15 14 15 14 14 14 14 14 15 17 18 20 21 20 21 23 23 19 19 21 17 18 20 22 20 20 23 26 31 31 31 31 30 28 26
14 14 11 18 8 17 21 16 16 14 14 14 15 17 17 16 16 17 19 22 23 24 24 25 24 23 22 19 21 22 19 20 20 19 21 22 23 28 33 34 33 32 29
6 7 11 10 14 19 15 16 15 15 17 19 20 19 20 21 26 29 29 26 27 26 25 25 26 24 21 19 20 19 24 23 23 22 23 24 22 23 29 36 38 37 35
3 5 7 11 17 15 20 25 27 27 26 24 26 25 25 26 28 28 30 31 28 29 30 28 27 27 23 23 23 23 21 22 22 20 24 25 24 26 26 27 33 38 37
10 10 12 14 15 18 23 26 27 28 26 26 27 26 28 29 30 29 30 28 28 27 30 32 33 31 29 24 21 21 23 23 25 23 23 24 23 27 27 28 31 32 35
16 17 18 21 23 25 29 31 33 35 36 30 28 29 29 28 27 26 26 25 25 25 27 27 30 32 33 29 27 25 23 27 26 27 25 29 23 27 26 28 29 28 33
21 22 22 23 24 25 27 29 30 31 26 23 23 22 23 25 26 28 28 26 27 28 25 29 32 37 35 29 29 26 25 23 25 26 25 29 27 28 26 28 29 32 36
18 21 21 22 24 26 26 28 30 23 22 22 22 22 22 23 24 26 27 27 28 26 23 26 26 29 32 35 37 37 32 30 29 26 25 27 25 25 29 32 31 27 29
Wind_Direction
243 249 262 263 268 282 259 243 234 251 259 242 246 243 246 243 244 251 257 265 251 244 230 237 247 234 237 251 252 262 264 269 264 266 261 262 265 259 259 257 256 259 260
255 255 258 266 257 256 248 244 267 266 248 240 249 237 243 243 248 246 255 262 260 244 236 241 245 240 252 255 251 254 256 261 259 259 261 259 257 255 258 257 256 263 256
268 263 257 254 230 236 237 264 279 276 262 239 240 244 244 250 248 250 250 253 264 255 245 249 250 251 249 244 249 249 253 253 256 255 259 256 253 250 250 250 249 250 258
274 256 247 241 233 242 255 260 266 286 234 225 228 245 253 250 251 248 254 249 255 248 266 247 245 241 243 246 242 246 246 252 256 256 252 257 252 247 243 246 252 258 259
253 253 240 227 228 239 245 252 267 273 266 256 248 248 251 248 249 259 253 253 250 243 240 260 250 242 243 242 248 252 253 253 254 260 261 256 250 246 243 243 245 249 252
242 237 233 224 235 238 254 253 264 255 259 256 255 249 240 249 245 250 251 254 257 249 243 239 255 250 248 249 251 259 261 253 256 259 261 260 249 240 237 239 242 248 253
251 249 234 252 250 251 258 261 265 266 249 245 252 252 262 252 241 247 249 245 248 251 246 246 242 245 252 263 255 256 258 260 257 259 259 256 251 239 234 237 242 246 247
257 253 259 255 259 258 256 259 258 266 268 242 234 245 254 251 240 246 246 244 247 247 249 249 246 248 243 241 258 252 250 250 250 251 255 255 254 245 239 237 237 240 245
254 264 267 272 268 266 255 250 256 263 261 220 211 235 258 247 5 229 238 224 240 247 248 249 250 250 248 243 240 251 242 236 244 256 253 248 249 245 237 236 237 237 238
268 262 266 284 293 274 279 240 262 254 246 239 233 231 234 247 275 305 220 244 238 252 248 252 255 252 249 246 246 239 237 240 241 246 252 251 246 247 242 237 237 237 236
275 265 261 272 315 286 262 257 254 253 239 242 240 242 240 249 255 260 275 261 280 265 244 262 257 251 247 252 249 246 243 240 240 242 245 247 245 241 242 239 236 233 231
259 282 261 260 271 287 290 268 263 245 247 238 240 248 254 261 269 266 257 271 280 272 271 264 259 252 252 253 259 246 245 242 239 236 238 245 244 240 237 237 235 234 231
258 254 242 254 256 259 278 291 256 236 246 240 257 244 252 257 255 259 256 265 284 278 273 273 263 259 262 260 264 265 257 240 230 232 238 241 236 240 238 234 234 234 232
242 239 260 263 265 265 268 287 284 244 250 256 252 249 253 268 271 261 264 274 286 281 272 268 267 257 261 269 268 263 253 238 230 232 237 235 236 235 234 236 236 238 236
240 226 238 247 264 279 272 262 230 258 258 280 272 275 282 275 278 278 279 282 277 277 277 273 261 270 252 270 285 289 264 246 243 238 235 234 237 238 235 228 229 236 243
246 242 237 247 243 270 265 265 273 284 272 288 292 277 276 282 283 289 281 278 283 275 272 270 267 268 268 256 264 278 264 252 254 240 236 237 240 241 239 231 232 234 238
251 245 232 227 323 287 268 272 273 269 275 276 286 289 286 289 290 284 283 286 282 275 274 277 273 273 275 270 258 257 262 262 260 257 244 242 241 242 238 236 234 235 236
232 213 230 229 288 258 267 275 274 270 277 283 282 281 286 291 286 289 291 286 292 289 279 278 279 266 261 262 263 254 246 252 259 262 266 249 243 242 236 235 237 236 238
242 263 283 300 197 250 258 270 279 282 286 282 280 282 288 291 291 288 282 280 279 277 280 285 283 280 278 264 258 262 258 250 250 250 247 261 249 241 235 234 234 236 236
204 207 235 252 200 243 252 261 271 272 271 273 273 280 286 288 289 291 292 283 278 274 272 272 277 278 275 274 271 261 256 256 254 248 253 253 256 253 244 238 236 236 239
185 156 178 191 225 243 262 266 269 269 274 278 276 279 286 283 281 292 291 282 269 270 270 268 269 273 275 271 265 271 268 261 254 237 243 246 252 257 254 243 239 238 239
215 220 229 232 240 250 251 259 264 268 271 273 280 283 283 288 294 295 292 292 283 265 259 261 265 265 267 271 272 269 267 264 271 250 249 250 240 245 250 248 246 240 239
269 263 260 258 260 263 265 269 270 273 274 274 277 278 280 284 284 282 281 281 284 280 267 261 260 260 265 259 261 266 272 269 261 258 256 249 244 242 243 246 247 249 244
298 297 293 291 288 287 283 284 282 282 282 281 280 280 281 284 280 277 278 276 271 269 269 267 262 258 257 259 261 258 259 265 264 263 252 257 244 245 246 241 246 247 247
304 306 307 307 304 301 298 296 294 292 292 287 284 281 281 280 278 273 274 274 273 271 270 271 261 260 256 249 244 254 257 259 267 267 250 253 249 243 240 246 245 249 251
317 315 313 312 311 308 305 300 296 296 292 290 288 284 277 274 275 269 268 273 272 271 272 272 269 269 266 261 252 251 253 252 249 257 256 255 254 250 249 237 233 235 251